Location: Izdebno
(52.6670°N, 16.2170°E)
Time: 19:12:56
(UTC+02:00)

SR - Pass Details

Date: 26 February 2024
Orbit: 577 x 862 km, 66.7° (Epoch: 21 April)

Event Time Altitude Azimuth Distance (km) Brightness Sun altitude
Rises 18:36:02 0° 287° (WNW) 3,407 ? -11.2°
Reaches altitude 10° 18:39:17 10° 304° (NW) 2,436 ? -11.6°
Maximum altitude 18:43:16 19° 349° (N) 1,811 ? -12.2°
Drops below altitude 10° 18:47:05 10° 35° (NE) 2,316 ? -12.8°
Enters shadow 18:48:17 - 44° (NE) 2,635 ? -13.0°
Sets 18:50:06 0° 53° (NE) 3,190 - -13.3°
